Showing default

NIMBUS 4, 4362

Orbit data source: Space-Track

NIMBUS 4, 4362 is a payload satellite owned by GSFC (US) in SSO that was launched on Wed, 08 Apr 1970 UTC via a THORAD SLV-2G AGENA D launch vehicle from the Air Force Western Test Range (AFWTR). Payload-class satellites include a variety of spacecraft equipped with specific instruments for various scientific and technological missions. These include communications satellites like Starlink; space stations such as the ISS; scientific satellites like the Hubble; Earth observation satellites from companies like Planet Labs, Umbra, and HawkEye 360; GPS; miniature CubeSats for education and research; and military/defense satellites.

Loading next visibility...
Identifier
4362, 1970-025A
Orbit
SSO
Country
Flag of USUS
Related business
Manufacturer
GE/MSVD
Mission
Non-operational spacecraft
Bus & Motor
NIMBUS, Unknown motor
Mass
619 kg wet, 619 kg dry
Launch date (UTC)
1970-04-08 (56 years ago)
Launch vehicle
THORAD SLV-2G AGENA D
Launch site
Air Force Western Test Range (AFWTR)
Object type
Payload
Rocket body
Debris
Shape & HBR
Unknown
Radar Cross Section
Large (>1 m²)

Expand to show TLE details & history
Last TLE update: 6 hours ago

TLE from 6 hours ago
0 NIMBUS 4
1  4362U 70025A   25308.40939064 -.00000015  00000-0  50521-4 0  9996
2  4362  99.9543 226.6958 0007348 180.0054 299.8850 13.44739856726639
Epoch: 2025-11-04T09:49Z
TLE epoch observation values (Epoch: 2025-11-04T09:49:31.351Z)
Latitude
58.80583°
Longitude
-127.82102°
Altitude
1,098.792 km
Speed
7.31 km/s
True Right ascension
04h 13m 49s
True Declination
58° 39' 37"
Sunlit
Object was in full shadow at epoch
Visualization orbit readout
Latitude
Unknown
Longitude
Unknown
Altitude
Unknown
Speed
Unknown
Apparent Right ascension
Unknown
Apparent Declination
Unknown
Sunlit
N/A
Visualization observer readout
Local Sidereal Time
11:57:11
Azimuth
Unknown
Elevation
Unknown
Doppler factor
Unknown
Orbital elements
Apogee altitude
1,094.483 km
Perigee altitude
1,083.509 km
Semi-major axis
7,467.133 km
Eccentricity
0.00073
Inclination
99.9543°
RAAN
226.6958°
Arg. of periapsis
180.0054°
True anomaly
299.81196°
Mean anomaly
299.885°
Eccentric anomaly
299.84848°
Mean motion
3.36366 °/min
Orbital period
107.03 mins
BSTAR
0.000050521
Loading maneuver chart data...
Computing Atmospheric mass density...

Documentation

Showing up to 5 results
|